Location: Esp�n
(42.4593°N, 0.2047°W)
Time: 09:00:38
(UTC+00:00)

MSX - Pass Details

Date: 07 June 2020
Orbit: 894 x 907 km, 98.8° (Epoch: 11 July)

Event Time Altitude Azimuth Distance (km) Brightness Sun altitude
Rises 03:43:34 0° 13° (NNE) 3,530 7.9 -6.9°
Reaches altitude 10° 03:45:59 10° 13° (NNE) 2,583 7.1 -6.5°
Maximum altitude 03:51:45 86° 287° (WNW) 905 3.9 -5.7°
Drops below altitude 10° 03:57:28 10° 197° (SSW) 2,559 5.7 -4.8°
Sets 03:59:51 0° 197° (SSW) 3,494 6.4 -4.5°
